Weather History for KCGS - January, 2013

Change the Weather History Date:

Monday, January 28, 2013

  Actual Average Record
Temperature  
Mean Temperature 38 °F -  
Max Temperature 45 °F 42 °F 71 °F (1949)
Min Temperature 30 °F 23 °F -7 °F (1961)
Degree Days  
Heating Degree Days 28    
Moisture  
Dew Point 35 °F    
Average Humidity 90    
Maximum Humidity 100    
Minimum Humidity 71    
Precipitation  
Precipitation 0.00 in - - ()
Sea Level Pressure  
Sea Level Pressure 30.26 in    
Wind  
Wind Speed 2 mph (South)    
Max Wind Speed 8 mph    
Max Gust Speed -    
Visibility 6 miles    
Events      
Averages and records for this station are not official NWS values.
T = Trace of Precipitation, MM = Missing Value Source: NWS Daily Summary

Daily Weather History Graph

Daily Weather History Graph

Search for Another Location

Airport or City:

Trip Planner

Search our weather history database for the weather conditions in past years. The results will help you decide how hot, cold, wet, or windy it might be!

Date:

Astronomy

Jan. 28, 2013 Rise Set
Actual Time 7:17 AM EST 5:24 PM EST
Civil Twilight 6:48 AM EST 5:53 PM EST
Nautical Twilight 6:16 AM EST 6:25 PM EST
Astronomical Twilight 5:45 AM EST 6:56 PM EST
Moon 7:15 PM EST (1/28) 7:43 AM EST (1/28)
Length of Visible Light 11h 04m
Length of Day
10h 07m
Full, 98% of the Moon is Illuminated
Jan 28
Full
Feb 3
Last Quarter
Feb 10
New
Feb 17
First Quarter
Feb 25
Full

Hourly Weather History & Observations

Time (EST) Temp. Windchill Dew Point Humidity Pressure Visibility Wind Dir Wind Speed Gust Speed Precip Events Conditions
12:10 AM 30.2 °F - 25.5 °F 83% 30.52 in 10.0 mi Calm Calm - N/A   Mostly Cloudy
12:30 AM 30.4 °F - 26.1 °F 84% 30.51 in 10.0 mi Calm Calm - N/A   Scattered Clouds
12:50 AM 30.9 °F - 26.1 °F 82% 30.50 in 10.0 mi Calm Calm - N/A   Scattered Clouds
1:15 AM 31.5 °F - 27.3 °F 85% 30.49 in 10.0 mi Calm Calm - N/A   Mostly Cloudy
1:35 AM 33.8 °F 30.8 °F 25.7 °F 72% 30.48 in 10.0 mi SE 3.5 mph - N/A   Overcast
1:55 AM 34.0 °F - 25.7 °F 72% 30.47 in 10.0 mi Calm Calm - N/A   Overcast
2:15 AM 34.2 °F - 26.1 °F 72% 30.47 in 10.0 mi Calm Calm - N/A   Overcast
2:40 AM 34.3 °F - 26.4 °F 73% 30.46 in 10.0 mi Calm Calm - N/A   Overcast
3:00 AM 34.7 °F 30.6 °F 26.6 °F 72% 30.45 in 10.0 mi South 4.6 mph - N/A   Overcast
3:20 AM 35.1 °F - 26.6 °F 71% 30.45 in 10.0 mi Calm Calm - N/A   Overcast
3:40 AM 35.6 °F - 27.0 °F 71% 30.44 in 10.0 mi Calm Calm - N/A   Overcast
4:05 AM 35.6 °F 32.8 °F 27.1 °F 71% 30.43 in 10.0 mi South 3.5 mph - N/A   Overcast
4:25 AM 35.6 °F - 27.1 °F 71% 30.42 in 10.0 mi Calm Calm - N/A   Overcast
4:45 AM 35.8 °F - 27.5 °F 72% 30.42 in 10.0 mi Calm Calm - N/A   Overcast
5:00 AM 35.8 °F 33.0 °F 27.5 °F 72% 30.41 in 10.0 mi SSE 3.5 mph - N/A   Overcast
5:30 AM 34.9 °F - 30.2 °F 83% 30.41 in 5.0 mi Calm Calm - N/A   Overcast
5:50 AM 34.7 °F 30.6 °F 31.1 °F 87% 30.40 in 7.0 mi South 4.6 mph - N/A   Overcast
6:10 AM 34.7 °F - 31.6 °F 89% 30.41 in 7.0 mi Calm Calm - N/A   Overcast
6:55 AM 34.7 °F 29.6 °F 32.0 °F 90% 30.40 in 7.0 mi South 5.8 mph - N/A   Overcast
7:15 AM 34.7 °F 30.6 °F 32.2 °F 91% 30.41 in 7.0 mi South 4.6 mph - N/A   Overcast
7:35 AM 34.7 °F 29.6 °F 32.7 °F 92% 30.41 in 5.0 mi South 5.8 mph - N/A   Overcast
8:00 AM 34.7 °F 30.6 °F 33.1 °F 94% 30.39 in 5.0 mi South 4.6 mph - N/A   Overcast
8:20 AM 35.1 °F 29.3 °F 33.6 °F 94% 30.39 in 4.0 mi South 6.9 mph - N/A   Overcast
8:40 AM 35.1 °F 31.0 °F 33.8 °F 95% 30.39 in 4.0 mi SSW 4.6 mph - N/A   Overcast
9:00 AM 35.2 °F 30.3 °F 34.2 °F 96% 30.38 in 4.0 mi South 5.8 mph - N/A   Overcast
9:25 AM 35.4 °F 30.5 °F 34.7 °F 97% 30.37 in 4.0 mi South 5.8 mph - N/A   Overcast
10:05 AM 35.8 °F 30.1 °F 35.6 °F 99% 30.35 in 4.0 mi South 6.9 mph - N/A   Overcast
10:25 AM 36.0 °F 31.1 °F 35.6 °F 99% 30.34 in 4.0 mi South 5.8 mph - N/A   Overcast
10:50 AM 36.3 °F 30.8 °F 35.8 °F 98% 30.33 in 5.0 mi South 6.9 mph - N/A   Overcast
11:10 AM 36.5 °F 30.3 °F 36.0 °F 98% 30.31 in 4.0 mi South 8.1 mph - N/A   Overcast
11:30 AM 36.7 °F 31.2 °F 36.5 °F 99% 30.30 in 5.0 mi South 6.9 mph - N/A   Overcast
11:50 AM 37.4 °F 32.8 °F 36.5 °F 97% 30.29 in 5.0 mi SSW 5.8 mph - N/A   Overcast
12:15 PM 37.6 °F 34.0 °F 36.5 °F 96% 30.25 in 5.0 mi South 4.6 mph - N/A   Overcast
12:55 PM 38.5 °F 34.1 °F 37.0 °F 95% 30.23 in 5.0 mi SSW 5.8 mph - N/A   Overcast
1:15 PM 38.8 °F 36.5 °F 37.4 °F 95% 30.21 in 5.0 mi SSW 3.5 mph - N/A   Overcast
1:40 PM 39.9 °F 36.7 °F 37.9 °F 93% 30.19 in 5.0 mi South 4.6 mph - N/A   Overcast
2:00 PM 40.3 °F 37.1 °F 38.3 °F 93% 30.17 in 5.0 mi SSW 4.6 mph - N/A   Overcast
2:20 PM 41.0 °F 38.0 °F 38.5 °F 91% 30.16 in 5.0 mi SSW 4.6 mph - N/A   Overcast
2:40 PM 41.0 °F 39.0 °F 38.5 °F 91% 30.15 in 5.0 mi SSW 3.5 mph - N/A   Overcast
3:05 PM 41.9 °F 39.0 °F 39.0 °F 90% 30.14 in 5.0 mi South 4.6 mph - N/A   Overcast
3:25 PM 42.4 °F 39.6 °F 39.4 °F 89% 30.13 in 5.0 mi SW 4.6 mph - N/A   Overcast
3:45 PM 43.7 °F 41.1 °F 39.7 °F 86% 30.13 in 7.0 mi SW 4.6 mph - N/A   Scattered Clouds
4:05 PM 44.1 °F 42.5 °F 40.1 °F 86% 30.13 in 7.0 mi SSW 3.5 mph - N/A   Mostly Cloudy
4:30 PM 44.6 °F - 40.5 °F 85% 30.13 in 7.0 mi Calm Calm - N/A   Mostly Cloudy
4:50 PM 44.8 °F 43.3 °F 40.8 °F 86% 30.12 in 7.0 mi SW 3.5 mph - N/A   Overcast
5:10 PM 45.0 °F - 41.0 °F 86% 30.11 in 7.0 mi Calm Calm - N/A   Overcast
5:30 PM 45.0 °F - 41.0 °F 86% 30.11 in 7.0 mi Calm Calm - N/A   Overcast
5:55 PM 45.0 °F - 41.5 °F 88% 30.11 in 7.0 mi Calm Calm - N/A   Overcast
6:15 PM 45.0 °F - 41.9 °F 89% 30.11 in 7.0 mi Calm Calm - N/A   Overcast
6:35 PM 44.8 °F - 41.7 °F 89% 30.11 in 7.0 mi Calm Calm - N/A   Overcast
6:55 PM 41.7 °F - 41.0 °F 97% 30.11 in 5.0 mi Calm Calm - N/A   Overcast
7:15 PM 41.2 °F - 40.8 °F 99% 30.10 in 5.0 mi Calm Calm - N/A   Scattered Clouds
7:40 PM 39.6 °F - 39.6 °F 100% 30.09 in 3.0 mi Calm Calm - N/A   Clear
8:00 PM 38.7 °F - 38.7 °F 100% 30.09 in 1.8 mi Calm Calm - N/A   Unknown
8:20 PM 37.4 °F - 37.4 °F 100% 30.09 in 1.5 mi Calm Calm - N/A   Unknown
8:40 PM 37.6 °F - 37.6 °F 100% 30.07 in 1.5 mi Calm Calm - N/A   Unknown
9:05 PM 35.8 °F - 35.8 °F 100% 30.08 in 1.0 mi Calm Calm - N/A   Unknown
9:25 PM 37.8 °F - 37.8 °F 100% 30.07 in 2.0 mi Calm Calm - N/A   Clear
9:45 PM 37.4 °F - 37.4 °F 100% 30.07 in 2.5 mi Calm Calm - N/A   Clear
10:05 PM 38.5 °F - 38.5 °F 100% 30.06 in 3.0 mi Calm Calm - N/A   Clear
10:30 PM 37.8 °F - 37.8 °F 100% 30.06 in 2.0 mi Calm Calm - N/A   Clear
10:50 PM 37.4 °F - 37.4 °F 100% 30.06 in 2.0 mi Calm Calm - N/A   Clear
11:10 PM 38.1 °F - 38.1 °F 100% 30.07 in 2.5 mi Calm Calm - N/A   Scattered Clouds
11:35 PM 38.1 °F - 38.1 °F 100% 30.07 in 2.0 mi Calm Calm - N/A   Clear
11:55 PM 37.0 °F - 37.0 °F 100% 30.07 in 1.5 mi Calm Calm - N/A   Unknown